Location: Berg
(48.4333°N, 13.9167°E)
Time: 08:40:10
(UTC+00:00)

Cosmos 2034 Rocket - Pass Details

Date: 18 September 2020
Orbit: 957 x 1002 km, 82.9° (Epoch: 24 October)

Event Time Altitude Azimuth Distance (km) Brightness Sun altitude
Rises 18:54:01 0° 183° (S) 3,712 6.8 -17.6°
Reaches altitude 10° 18:56:32 10° 183° (S) 2,766 6.2 -18.0°
Maximum altitude 19:02:53 82° 97° (E) 1,016 4.0 -18.9°
Drops below altitude 10° 19:09:16 10° 11° (N) 2,770 6.6 -19.9°
Sets 19:11:48 0° 10° (N) 3,718 7.3 -20.2°
